• In Austria
  • List of Countries
  • For 7 days
  • Water Temperature
  • Satellite Maps
  • Weather Map
  • News
  • Weather Widgets
  • user-avatar
    Login

    Hourly Weather Pamporovo

    Today, 19 July, Thursday

    Time Temperature Precipitation Wind Pressure Humidity
    00:00 +10°C° 0 mm 3 mps 622 mmHg 74%
    01:00 +10°C° 0 mm 3 mps 622 mmHg 75%
    02:00 +9°C° 0 mm 2 mps 622 mmHg 76%
    03:00 +9°C° 0 mm 2 mps 622 mmHg 76%
    04:00 +9°C° 0 mm 2 mps 622 mmHg 76%
    05:00 +9°C° 0 mm 2 mps 621 mmHg 75%
    06:00 +10°C° 0 mm 2 mps 622 mmHg 71%
    07:00 +13°C° 0 mm 2 mps 623 mmHg 67%
    08:00 +15°C° 0 mm 2 mps 623 mmHg 63%
    09:00 +15°C° 0 mm 2 mps 624 mmHg 62%
    10:00 +16°C° 0 mm 2 mps 624 mmHg 60%
    11:00 +16°C° 0 mm 2 mps 624 mmHg 59%
    12:00 +17°C° 0.3 mm 2 mps 625 mmHg 58%
    13:00 +18°C° 0.3 mm 3 mps 625 mmHg 57%
    14:00 +18°C° 0.3 mm 3 mps 625 mmHg 57%
    15:00 +18°C° 0.5 mm 3 mps 625 mmHg 57%
    16:00 +18°C° 0.5 mm 3 mps 625 mmHg 58%
    17:00 +18°C° 0.5 mm 3 mps 625 mmHg 59%
    18:00 +16°C° 0.2 mm 2 mps 624 mmHg 65%
    19:00 +15°C° 0.2 mm 2 mps 624 mmHg 71%
    20:00 +13°C° 0.2 mm 2 mps 623 mmHg 77%
    21:00 +12°C° 0 mm 2 mps 623 mmHg 79%
    22:00 +12°C° 0 mm 2 mps 623 mmHg 81%
    23:00 +10°C° 0 mm 2 mps 623 mmHg 82%

    Tomorrow, 20 July, Friday

    Time Temperature Precipitation Wind Pressure Humidity
    00:00 +10°C° 0 mm 2 mps 623 mmHg 82%
    01:00 +10°C° 0 mm 2 mps 623 mmHg 82%
    02:00 +9°C° 0 mm 2 mps 623 mmHg 82%
    03:00 +9°C° 0 mm 2 mps 623 mmHg 83%
    04:00 +9°C° 0 mm 2 mps 623 mmHg 83%
    05:00 +9°C° 0 mm 2 mps 623 mmHg 83%
    06:00 +12°C° 0 mm 2 mps 624 mmHg 78%
    07:00 +14°C° 0 mm 2 mps 625 mmHg 72%
    08:00 +16°C° 0 mm 1 mps 626 mmHg 66%
    09:00 +18°C° 0 mm 2 mps 627 mmHg 61%
    10:00 +19°C° 0 mm 2 mps 627 mmHg 56%
    11:00 +21°C° 0 mm 2 mps 628 mmHg 52%
    12:00 +21°C° 0.7 mm 2 mps 628 mmHg 52%
    13:00 +21°C° 0.7 mm 2 mps 628 mmHg 53%
    14:00 +21°C° 0.7 mm 2 mps 627 mmHg 54%
    15:00 +21°C° 0.7 mm 2 mps 627 mmHg 57%
    16:00 +20°C° 0.7 mm 2 mps 627 mmHg 59%
    17:00 +21°C° 0.7 mm 1 mps 627 mmHg 62%
    18:00 +19°C° 0.4 mm 1 mps 626 mmHg 66%
    19:00 +18°C° 0.4 mm 1 mps 626 mmHg 70%
    20:00 +15°C° 0.4 mm 1 mps 625 mmHg 75%
    21:00 +14°C° 0.2 mm 1 mps 625 mmHg 77%
    22:00 +14°C° 0.2 mm 1 mps 625 mmHg 79%
    23:00 +13°C° 0.2 mm 2 mps 625 mmHg 81%

    Day after tomorrow, 21 July, Saturday

    Time Temperature Precipitation Wind Pressure Humidity
    00:00 +13°C° 0.1 mm 2 mps 625 mmHg 81%
    01:00 +12°C° 0.1 mm 2 mps 625 mmHg 80%
    02:00 +12°C° 0.1 mm 2 mps 625 mmHg 80%
    03:00 +12°C° 0 mm 2 mps 625 mmHg 80%
    04:00 +10°C° 0 mm 2 mps 625 mmHg 80%
    05:00 +10°C° 0 mm 2 mps 625 mmHg 79%
    06:00 +13°C° 0 mm 2 mps 626 mmHg 73%
    07:00 +15°C° 0 mm 1 mps 626 mmHg 68%
    08:00 +18°C° 0 mm 1 mps 627 mmHg 62%
    09:00 +20°C° 0 mm 1 mps 628 mmHg 57%
    10:00 +20°C° 0 mm 2 mps 628 mmHg 52%
    11:00 +23°C° 0 mm 2 mps 629 mmHg 47%
    12:00 +23°C° 0.1 mm 2 mps 629 mmHg 46%
    13:00 +23°C° 0.1 mm 2 mps 628 mmHg 46%
    14:00 +23°C° 0.1 mm 2 mps 628 mmHg 45%
    15:00 +23°C° 0.1 mm 2 mps 628 mmHg 45%
    16:00 +23°C° 0.1 mm 2 mps 628 mmHg 45%
    17:00 +23°C° 0.1 mm 2 mps 628 mmHg 45%
    18:00 +20°C° 0.1 mm 2 mps 627 mmHg 51%
    19:00 +19°C° 0.1 mm 1 mps 626 mmHg 58%
    20:00 +16°C° 0.1 mm 1 mps 626 mmHg 64%
    21:00 +15°C° 0 mm 1 mps 626 mmHg 64%
    22:00 +14°C° 0 mm 2 mps 625 mmHg 64%
    23:00 +14°C° 0 mm 2 mps 625 mmHg 64%

    22 July, Sunday

    Time Temperature Precipitation Wind Pressure Humidity
    00:00 +13°C° 0 mm 2 mps 625 mmHg 63%
    01:00 +13°C° 0 mm 2 mps 625 mmHg 62%
    02:00 +13°C° 0 mm 2 mps 625 mmHg 61%
    03:00 +13°C° 0 mm 2 mps 625 mmHg 61%
    04:00 +13°C° 0 mm 2 mps 625 mmHg 61%
    05:00 +12°C° 0 mm 2 mps 624 mmHg 61%
    06:00 +15°C° 0 mm 1 mps 625 mmHg 57%
    07:00 +18°C° 0 mm 1 mps 626 mmHg 52%
    08:00 +20°C° 0 mm 1 mps 627 mmHg 48%
    09:00 +22°C° 0 mm 1 mps 627 mmHg 44%
    10:00 +23°C° 0 mm 1 mps 628 mmHg 40%
    11:00 +25°C° 0 mm 2 mps 628 mmHg 36%
    12:00 +25°C° 0.2 mm 2 mps 628 mmHg 38%
    13:00 +25°C° 0.2 mm 2 mps 627 mmHg 40%
    14:00 +24°C° 0.2 mm 2 mps 627 mmHg 42%
    15:00 +24°C° 0.1 mm 2 mps 626 mmHg 44%
    16:00 +24°C° 0.1 mm 2 mps 626 mmHg 46%
    17:00 +24°C° 0.1 mm 2 mps 626 mmHg 47%
    18:00 +21°C° 0.1 mm 2 mps 625 mmHg 53%
    19:00 +19°C° 0.1 mm 2 mps 624 mmHg 58%
    20:00 +17°C° 0.1 mm 2 mps 623 mmHg 64%
    21:00 +16°C° 0 mm 2 mps 623 mmHg 65%
    22:00 +16°C° 0 mm 2 mps 623 mmHg 66%
    23:00 +15°C° 0 mm 2 mps 623 mmHg 67%

    23 July, Monday

    Time Temperature Precipitation Wind Pressure Humidity
    00:00 +14°C° 0.1 mm 2 mps 623 mmHg 69%
    01:00 +14°C° 0.1 mm 2 mps 622 mmHg 71%
    02:00 +13°C° 0.1 mm 2 mps 621 mmHg 72%
    03:00 +13°C° 0 mm 2 mps 621 mmHg 71%
    04:00 +13°C° 0 mm 2 mps 621 mmHg 70%
    05:00 +12°C° 0 mm 2 mps 620 mmHg 69%
    06:00 +14°C° 0 mm 1 mps 621 mmHg 65%
    07:00 +16°C° 0 mm 1 mps 622 mmHg 61%
    08:00 +17°C° 0 mm 0 mps 622 mmHg 57%
    09:00 +20°C° 0 mm 1 mps 623 mmHg 52%
    10:00 +22°C° 0 mm 1 mps 623 mmHg 47%
    11:00 +23°C° 0 mm 2 mps 623 mmHg 42%
    12:00 +24°C° 0.1 mm 2 mps 623 mmHg 42%
    13:00 +24°C° 0.1 mm 2 mps 623 mmHg 41%
    14:00 +25°C° 0.1 mm 1 mps 623 mmHg 41%
    15:00 +24°C° 0.3 mm 1 mps 622 mmHg 44%
    16:00 +23°C° 0.3 mm 1 mps 622 mmHg 47%
    17:00 +22°C° 0.3 mm 1 mps 622 mmHg 50%
    18:00 +20°C° 0.9 mm 1 mps 621 mmHg 58%
    19:00 +18°C° 0.9 mm 1 mps 621 mmHg 66%
    20:00 +15°C° 0.9 mm 2 mps 620 mmHg 74%
    21:00 +14°C° 1.1 mm 2 mps 620 mmHg 78%
    22:00 +14°C° 1.1 mm 2 mps 620 mmHg 82%
    23:00 +13°C° 1.1 mm 2 mps 620 mmHg 85%

    24 July, Tuesday

    Time Temperature Precipitation Wind Pressure Humidity
    00:00 +13°C° 0.3 mm 2 mps 620 mmHg 86%
    01:00 +12°C° 0.3 mm 2 mps 620 mmHg 87%
    02:00 +12°C° 0.3 mm 2 mps 620 mmHg 88%
    03:00 +12°C° 0.2 mm 2 mps 620 mmHg 88%
    04:00 +12°C° 0.2 mm 2 mps 620 mmHg 88%
    05:00 +10°C° 0.2 mm 2 mps 620 mmHg 88%
    06:00 +12°C° 0.3 mm 2 mps 621 mmHg 85%
    07:00 +13°C° 0.3 mm 2 mps 621 mmHg 82%
    08:00 +14°C° 0.3 mm 2 mps 622 mmHg 79%
    09:00 +15°C° 0.7 mm 2 mps 622 mmHg 77%
    10:00 +16°C° 0.7 mm 2 mps 623 mmHg 74%
    11:00 +17°C° 0.7 mm 2 mps 623 mmHg 72%
    12:00 +17°C° 1 mm 2 mps 623 mmHg 72%
    13:00 +17°C° 1 mm 2 mps 623 mmHg 72%
    14:00 +17°C° 1 mm 2 mps 623 mmHg 72%
    15:00 +17°C° 0.2 mm 2 mps 623 mmHg 70%
    16:00 +17°C° 0.2 mm 2 mps 624 mmHg 68%
    17:00 +18°C° 0.2 mm 2 mps 624 mmHg 66%
    18:00 +16°C° 0.3 mm 2 mps 623 mmHg 71%
    19:00 +15°C° 0.3 mm 2 mps 623 mmHg 76%
    20:00 +14°C° 0.3 mm 2 mps 623 mmHg 81%
    21:00 +13°C° 0.5 mm 2 mps 623 mmHg 83%
    22:00 +12°C° 0.5 mm 2 mps 623 mmHg 85%
    23:00 +12°C° 0.5 mm 2 mps 623 mmHg 87%
    Show more